EW3525 Weather Reports


Display with metric or nautical units.
time (UTC)temp
F
wind
direction
speed
MPH
gust
MPH
rain 1hr
in
rain 24hr
in
rain mn
in
humidity
%
barometer
mb
20260507203040 47 167 0.0 0.0 0.00 0.00 0.00 84 1016.2
20260507202542 47 167 0.0 0.0 0.00 0.00 0.00 83 1016.2
20260507202040 47 167 0.0 0.0 0.00 0.00 0.00 83 1016.1
20260507201541 48 167 0.0 0.0 0.00 0.00 0.00 82 1016.0
20260507201040 48 167 0.0 0.0 0.00 0.00 0.00 82 1015.9
20260507200540 48 167 0.0 0.0 0.00 0.00 0.00 81 1015.8
20260507200041 49 167 0.0 0.0 0.00 0.00 0.00 80 1015.7
20260507195540 49 167 0.0 0.0 0.00 0.00 0.00 79 1015.6
20260507195042 50 167 0.0 0.0 0.00 0.00 0.00 78 1015.6
20260507194539 50 167 0.0 0.0 0.00 0.00 0.00 77 1015.5
20260507194038 51 167 0.0 0.0 0.00 0.00 0.00 75 1015.4
20260507193539 52 167 0.0 0.0 0.00 0.00 0.00 74 1015.4
20260507193038 52 168 0.0 0.0 0.00 0.00 0.00 73 1015.4
20260507192538 52 178 0.0 0.0 0.00 0.00 0.00 73 1015.3
20260507192038 53 141 0.0 0.0 0.00 0.00 0.00 72 1015.3
20260507191538 53 181 0.0 2.0 0.00 0.00 0.00 71 1015.3
20260507191037 53 134 0.0 3.0 0.00 0.00 0.00 70 1015.3
20260507190537 54 119 1.0 4.0 0.00 0.00 0.00 69 1015.2
20260507190041 54 176 0.0 4.0 0.00 0.00 0.00 68 1015.2
20260507185536 54 184 0.0 4.0 0.00 0.00 0.00 68 1015.1
20260507185036 55 193 0.0 5.0 0.00 0.00 0.00 67 1015.1
20260507184539 55 179 1.0 5.0 0.00 0.00 0.00 67 1015.1
20260507184038 55 174 1.0 5.0 0.00 0.00 0.00 66 1015.1
20260507183536 56 143 2.0 5.0 0.00 0.00 0.00 65 1015.1
20260507183040 56 157 0.0 5.0 0.00 0.00 0.00 66 1015.1
20260507182535 56 186 0.0 5.0 0.00 0.00 0.00 65 1015.1
20260507182035 56 161 1.0 4.0 0.00 0.00 0.00 65 1015.1
20260507181535 56 180 1.0 4.0 0.00 0.00 0.00 66 1015.1
20260507181037 56 199 0.0 3.0 0.00 0.00 0.00 65 1015.0
20260507180534 56 201 0.0 3.0 0.00 0.00 0.00 66 1015.0
20260507180037 56 167 1.0 3.0 0.00 0.00 0.00 65 1015.0
20260507175535 56 151 0.0 3.0 0.00 0.00 0.00 67 1015.0
20260507175034 56 157 0.0 4.0 0.00 0.00 0.00 65 1015.0
20260507174538 56 170 1.0 6.0 0.00 0.00 0.00 64 1015.0
20260507174135 56 180 1.0 6.0 0.00 0.00 0.00 64 1014.9
20260507173532 56 168 1.0 3.0 0.00 0.00 0.00 64 1015.0
20260507173035 56 198 1.0 5.0 0.00 0.00 0.00 65 1015.0
20260507172533 56 181 1.0 6.0 0.00 0.00 0.00 65 1015.0
20260507172032 56 187 2.0 6.0 0.00 0.00 0.00 65 1015.0
20260507171533 56 176 1.0 4.0 0.00 0.00 0.00 65 1015.0
20260507171032 56 181 1.0 6.0 0.00 0.00 0.00 65 1015.0
20260507170532 56 175 2.0 6.0 0.00 0.00 0.00 64 1015.0
20260507170031 56 173 1.0 5.0 0.00 0.00 0.00 63 1015.0
20260507165531 56 142 1.0 4.0 0.00 0.00 0.00 64 1014.9
20260507165035 56 198 1.0 6.0 0.00 0.00 0.00 62 1015.0
20260507164531 57 186 1.0 5.0 0.00 0.00 0.00 63 1015.0
20260507164034 57 180 2.0 5.0 0.00 0.00 0.00 62 1015.0
20260507163530 57 150 1.0 5.0 0.00 0.00 0.00 63 1014.9
20260507163032 57 183 1.0 5.0 0.00 0.00 0.00 64 1014.9
20260507162530 57 178 2.0 8.0 0.00 0.00 0.00 63 1014.9
20260507162030 57 150 3.0 8.0 0.00 0.00 0.00 62 1015.0
20260507161529 57 187 1.0 6.0 0.00 0.00 0.00 62 1014.9
20260507161029 57 262 2.0 6.0 0.00 0.00 0.00 60 1015.0
20260507160533 57 173 2.0 6.0 0.00 0.00 0.00 57 1015.0
20260507160031 57 192 1.0 5.0 0.00 0.00 0.00 57 1015.0
20260507155528 58 190 2.0 5.0 0.00 0.00 0.00 58 1015.0
20260507155028 58 157 1.0 5.0 0.00 0.00 0.00 59 1015.0
20260507154528 58 159 1.0 5.0 0.00 0.00 0.00 59 1015.0
20260507154027 58 150 1.0 4.0 0.00 0.00 0.00 58 1015.0
20260507153527 58 156 1.0 4.0 0.00 0.00 0.00 58 1015.1
20260507153027 58 176 1.0 2.0 0.00 0.00 0.00 57 1015.1
20260507152527 58 232 1.0 2.0 0.00 0.00 0.00 53 1015.1
20260507152027 58 157 0.0 2.0 0.00 0.00 0.00 46 1015.0
20260507151527 58 169 0.0 2.0 0.00 0.00 0.00 51 1015.0
20260507151026 58 180 0.0 2.0 0.00 0.00 0.00 52 1015.0
20260507150528 59 19 0.0 2.0 0.00 0.00 0.00 48 1015.0
20260507150027 59 360 0.0 3.0 0.00 0.00 0.00 50 1015.0
20260507145529 58 152 0.0 3.0 0.00 0.00 0.00 49 1015.1
20260507145025 58 199 0.0 2.0 0.00 0.00 0.00 49 1015.1
20260507144525 59 146 0.0 3.0 0.00 0.00 0.00 49 1015.1
20260507144024 59 186 0.0 3.0 0.00 0.00 0.00 48 1015.1
20260507143528 59 223 0.0 2.0 0.00 0.00 0.00 50 1015.1
20260507143023 59 35 0.0 5.0 0.00 0.00 0.00 48 1015.1
20260507142523 60 143 0.0 5.0 0.00 0.00 0.00 45 1015.2
20260507142023 61 171 0.0 3.0 0.00 0.00 0.00 46 1015.2
20260507141523 61 170 0.0 5.0 0.00 0.00 0.00 45 1015.3
20260507141026 61 185 0.0 3.0 0.00 0.00 0.00 48 1015.2
20260507140523 59 151 0.0 2.0 0.00 0.00 0.00 49 1015.3
20260507140022 59 122 0.0 2.0 0.00 0.00 0.00 46 1015.2
20260507135522 59 198 0.0 2.0 0.00 0.00 0.00 47 1015.2
20260507135022 60 40 0.0 2.0 0.00 0.00 0.00 51 1015.2
20260507134522 60 70 0.0 0.0 0.00 0.00 0.00 51 1015.2
20260507134021 59 155 0.0 0.0 0.00 0.00 0.00 44 1015.3
20260507133522 60 9 0.0 2.0 0.00 0.00 0.00 46 1015.3
20260507133021 59 360 0.0 2.0 0.00 0.00 0.00 45 1015.4
20260507132522 59 58 0.0 3.0 0.00 0.00 0.00 46 1015.5
20260507132022 59 349 0.0 3.0 0.00 0.00 0.00 46 1015.5
20260507131521 59 158 1.0 3.0 0.00 0.00 0.00 46 1015.5
20260507131020 60 43 0.0 3.0 0.00 0.00 0.00 51 1015.5
20260507130524 59 144 0.0 3.0 0.00 0.00 0.00 48 1015.5
20260507130020 59 196 0.0 2.0 0.00 0.00 0.00 48 1015.5
20260507125524 59 190 0.0 2.0 0.00 0.00 0.00 51 1015.4
20260507125019 58 180 0.0 3.0 0.00 0.00 0.00 47 1015.5
20260507124523 59 180 1.0 4.0 0.00 0.00 0.00 47 1015.6
20260507124019 59 188 0.0 2.0 0.00 0.00 0.00 48 1015.6
20260507123519 58 150 0.0 2.0 0.00 0.00 0.00 49 1015.6
20260507123018 58 130 0.0 3.0 0.00 0.00 0.00 47 1015.6
20260507122518 58 206 0.0 2.0 0.00 0.00 0.00 45 1015.6
20260507122018 58 176 0.0 2.0 0.00 0.00 0.00 46 1015.7
20260507121518 58 156 0.0 2.0 0.00 0.00 0.00 49 1015.6
20260507121021 58 5 0.0 2.0 0.00 0.00 0.00 49 1015.7
20260507120518 58 164 0.0 2.0 0.00 0.00 0.00 48 1015.7
20260507120018 58 9 0.0 2.0 0.00 0.00 0.00 47 1015.7
20260507115518 58 196 0.0 2.0 0.00 0.00 0.00 45 1015.7
20260507115017 58 206 0.0 2.0 0.00 0.00 0.00 47 1015.7
20260507114516 58 199 0.0 2.0 0.00 0.00 0.00 46 1015.6
20260507114016 58 190 0.0 3.0 0.00 0.00 0.00 46 1015.7
20260507113517 60 197 1.0 3.0 0.00 0.00 0.00 43 1015.7
20260507113030 62 355 0.0 3.0 0.00 0.00 0.00 42 1015.6
20260507112516 64 355 0.0 3.0 0.00 0.00 0.00 44 1015.6
20260507112017 64 340 0.0 3.0 0.00 0.00 0.00 45 1015.7
20260507111521 63 17 0.0 5.0 0.00 0.00 0.00 46 1015.7
20260507111012 63 5 2.0 5.0 0.00 0.00 0.00 45 1015.7
20260507110516 61 30 0.0 3.0 0.00 0.00 0.00 49 1015.7
20260507110110 59 11 0.0 3.0 0.00 0.00 0.00 52 1015.7
20260507105510 57 173 0.0 2.0 0.00 0.00 0.00 50 1015.7
20260507105009 58 221 0.0 2.0 0.00 0.00 0.00 48 1015.8
20260507104511 59 342 0.0 4.0 0.00 0.00 0.00 49 1015.7
20260507104009 59 36 1.0 4.0 0.00 0.00 0.00 50 1015.8
20260507103508 60 340 0.0 3.0 0.00 0.00 0.00 47 1015.9
20260507103009 61 107 0.0 2.0 0.00 0.00 0.00 50 1015.9
20260507102512 61 26 0.0 2.0 0.00 0.00 0.00 51 1016.0
20260507102008 60 76 0.0 2.0 0.00 0.00 0.00 46 1016.0
20260507101507 61 30 0.0 3.0 0.00 0.00 0.00 46 1016.0
20260507101004 62 355 1.0 3.0 0.00 0.00 0.00 58 1016.1
20260507100503 60 21 0.0 2.0 0.00 0.00 0.00 55 1016.0
20260507100003 60 350 0.0 3.0 0.00 0.00 0.00 61 1016.0
20260507095501 60 260 0.0 4.0 0.00 0.00 0.00 55 1016.1
20260507095101 60 10 1.0 4.0 0.00 0.00 0.00 60 1016.1
20260507094558 59 34 1.0 4.0 0.00 0.00 0.00 61 1016.1
20260507094057 57 204 0.0 2.0 0.00 0.00 0.00 62 1016.1
20260507093557 58 360 0.0 4.0 0.00 0.00 0.00 59 1016.1
20260507093058 59 162 0.0 4.0 0.00 0.00 0.00 67 1016.1
20260507092554 57 109 0.0 4.0 0.00 0.00 0.00 64 1016.0
20260507092053 58 339 1.0 4.0 0.00 0.00 0.00 67 1016.1
20260507091554 58 44 1.0 2.0 0.00 0.00 0.00 68 1016.2
20260507091051 57 33 0.0 2.0 0.00 0.00 0.00 67 1016.2
20260507090549 56 349 0.0 2.0 0.00 0.00 0.00 73 1016.3
20260507090049 56 65 0.0 2.0 0.00 0.00 0.00 73 1016.2
20260507085548 54 355 0.0 2.0 0.00 0.00 0.00 75 1016.2
20260507085046 54 32 0.0 4.0 0.00 0.00 0.00 75 1016.3
20260507084551 54 10 1.0 4.0 0.00 0.00 0.00 75 1016.3
20260507084042 54 257 0.0 2.0 0.00 0.00 0.00 76 1016.3
20260507083541 53 163 0.0 3.0 0.00 0.00 0.00 77 1016.3
20260507083047 53 213 0.0 2.0 0.00 0.00 0.00 81 1016.3
20260507082543 52 22 0.0 2.0 0.00 0.00 0.00 81 1016.4
20260507082042 51 93 0.0 3.0 0.00 0.00 0.00 84 1016.4
20260507081535 50 21 0.0 3.0 0.00 0.00 0.00 84 1016.3
20260507081036 49 360 0.0 3.0 0.00 0.00 0.00 87 1016.4
20260507080533 48 9 1.0 2.0 0.00 0.00 0.00 88 1016.4
20260507080032 47 166 0.0 2.0 0.00 0.00 0.00 88 1016.4
20260507075532 47 20 0.0 2.0 0.00 0.00 0.00 88 1016.3
20260507075029 46 57 0.0 2.0 0.00 0.00 0.00 90 1016.3
20260507074529 46 360 0.0 3.0 0.00 0.00 0.00 90 1016.3
20260507074026 45 347 1.0 3.0 0.00 0.00 0.00 91 1016.3
20260507073525 45 355 0.0 2.0 0.00 0.00 0.00 91 1016.3
20260507073024 44 355 0.0 3.0 0.00 0.00 0.00 92 1016.3
20260507072523 44 12 0.0 3.0 0.00 0.00 0.00 93 1016.3
20260507072021 43 178 0.0 2.0 0.00 0.00 0.00 93 1016.3
20260507071519 43 15 0.0 2.0 0.00 0.00 0.00 94 1016.2
20260507071025 42 22 0.0 2.0 0.00 0.00 0.00 94 1016.2
20260507070517 41 15 0.0 2.0 0.00 0.00 0.00 94 1016.2
20260507070016 41 350 0.0 2.0 0.00 0.00 0.00 94 1016.2
20260507065519 41 27 0.0 2.0 0.00 0.00 0.00 94 1016.2
20260507065014 40 26 0.0 2.0 0.00 0.00 0.00 94 1016.2
20260507064514 40 30 0.0 2.0 0.00 0.00 0.00 94 1016.3
20260507064014 40 24 0.0 2.0 0.00 0.00 0.00 94 1016.3
20260507063510 39 14 0.0 2.0 0.00 0.00 0.00 94 1016.3
20260507063012 39 15 0.0 2.0 0.00 0.00 0.00 94 1016.2
20260507062510 38 32 0.0 2.0 0.00 0.00 0.00 94 1016.2
20260507062009 38 30 0.0 2.0 0.00 0.00 0.00 94 1016.2
20260507061509 38 34 0.0 2.0 0.00 0.00 0.00 94 1016.2
20260507061009 38 33 0.0 2.0 0.00 0.00 0.00 94 1016.1
20260507060507 37 35 0.0 2.0 0.00 0.00 0.00 94 1016.1
20260507060007 37 42 0.0 2.0 0.00 0.00 0.00 94 1016.1
20260507055507 37 42 0.0 0.0 0.00 0.00 0.00 94 1016.0
20260507055005 36 42 0.0 2.0 0.00 0.00 0.00 94 1016.0
20260507054506 36 42 0.0 2.0 0.00 0.00 0.00 94 1016.0
20260507054004 36 42 0.0 0.0 0.00 0.00 0.00 94 1016.0
20260507053504 36 42 0.0 0.0 0.00 0.00 0.00 94 1015.9
20260507053003 35 42 0.0 0.0 0.00 0.00 0.00 93 1015.9
20260507052501 35 42 0.0 0.0 0.00 0.00 0.00 93 1015.8
20260507052002 35 42 0.0 2.0 0.00 0.00 0.00 93 1015.7
20260507051502 35 42 0.0 2.0 0.00 0.00 0.00 93 1015.8
20260507051001 34 42 0.0 2.0 0.00 0.00 0.00 93 1015.8
20260507050603 34 42 0.0 2.0 0.00 0.00 0.00 93 1015.7
20260507050100 34 42 0.0 2.0 0.00 0.00 0.00 93 1015.7
20260507045600 34 42 0.0 0.0 0.00 0.00 0.00 93 1015.7
20260507045059 34 42 0.0 0.0 0.00 0.00 0.00 93 1015.6
20260507044616 34 42 0.0 2.0 0.00 0.00 0.00 93 1015.6
20260507044058 34 42 0.0 1.0 0.00 0.00 0.00 93 1015.6
20260507043556 34 42 0.0 0.0 0.00 0.00 0.00 93 1015.6
20260507043058 34 42 0.0 0.0 0.00 0.00 0.00 93 1015.6
20260507042555 34 42 0.0 0.0 0.00 0.00 0.00 93 1015.6
20260507042055 34 42 0.0 0.0 0.00 0.00 0.00 93 1015.6
20260507041601 34 42 0.0 0.0 0.00 0.00 0.00 92 1015.6
20260507041053 34 42 0.0 0.0 0.00 0.00 0.00 92 1015.6
20260507040553 34 42 0.0 0.0 0.00 0.00 0.00 93 1015.6
20260507040100 34 42 0.0 0.0 0.00 0.00 0.00 93 1015.6
20260507035551 34 42 0.0 0.0 0.00 0.00 0.00 92 1015.6
20260507035051 35 42 0.0 0.0 0.00 0.00 0.00 92 1015.6
20260507034556 35 42 0.0 0.0 0.00 0.00 0.00 93 1015.6
20260507034049 35 42 0.0 0.0 0.00 0.00 0.00 93 1015.5
20260507033548 35 42 0.0 0.0 0.00 0.00 0.00 92 1015.5
20260507033048 35 42 0.0 0.0 0.00 0.00 0.00 92 1015.5
20260507032547 35 42 0.0 0.0 0.00 0.00 0.00 92 1015.5
20260507032047 35 42 0.0 0.0 0.00 0.00 0.00 93 1015.5
20260507031547 35 42 0.0 0.0 0.00 0.00 0.00 92 1015.6
20260507031047 35 42 0.0 0.0 0.00 0.00 0.00 92 1015.6
20260507030547 35 42 0.0 0.0 0.00 0.00 0.00 92 1015.6
20260507030052 35 42 0.0 0.0 0.00 0.00 0.00 92 1015.5
20260507025547 35 42 0.0 0.0 0.00 0.00 0.00 92 1015.5
20260507025047 35 42 0.0 0.0 0.00 0.00 0.00 92 1015.6
20260507024546 35 42 0.0 0.0 0.00 0.00 0.00 92 1015.5
20260507024045 35 42 0.0 0.0 0.00 0.00 0.00 92 1015.5
20260507023544 35 42 0.0 0.0 0.00 0.00 0.00 92 1015.5
20260507023044 35 42 0.0 0.0 0.00 0.00 0.00 92 1015.5
20260507022543 35 42 0.0 0.0 0.00 0.00 0.00 92 1015.5
20260507022044 35 42 0.0 0.0 0.00 0.00 0.00 92 1015.5
20260507021546 35 42 0.0 0.0 0.00 0.00 0.00 92 1015.5
20260507021042 36 42 0.0 0.0 0.00 0.00 0.00 91 1015.4
20260507020542 36 42 0.0 0.0 0.00 0.00 0.00 91 1015.5
20260507020042 36 42 0.0 0.0 0.00 0.00 0.00 91 1015.4
20260507015540 36 42 0.0 0.0 0.00 0.00 0.00 91 1015.4
20260507015039 36 42 0.0 0.0 0.00 0.00 0.00 91 1015.4
20260507014539 37 42 0.0 0.0 0.00 0.00 0.00 91 1015.3
20260507014038 37 42 0.0 0.0 0.00 0.00 0.00 91 1015.3
20260507013540 37 42 0.0 0.0 0.00 0.00 0.00 91 1015.2
20260507013039 37 42 0.0 0.0 0.00 0.00 0.00 91 1015.3
20260507012536 37 42 0.0 0.0 0.00 0.00 0.00 91 1015.3
20260507012036 37 42 0.0 0.0 0.00 0.00 0.00 91 1015.3
20260507011540 37 42 0.0 2.0 0.00 0.00 0.00 91 1015.4
20260507011035 38 42 0.0 0.0 0.00 0.00 0.00 91 1015.4
20260507010534 38 42 0.0 2.0 0.00 0.00 0.00 91 1015.3
20260507010034 38 42 0.0 2.0 0.00 0.00 0.00 91 1015.3
20260507005534 38 42 0.0 2.0 0.00 0.00 0.00 91 1015.3
20260507005133 38 42 0.0 2.0 0.00 0.00 0.00 91 1015.3
20260507004532 38 42 0.0 1.0 0.00 0.00 0.00 90 1015.4
20260507004031 38 42 0.0 1.0 0.00 0.00 0.00 90 1015.3
20260507003535 38 42 0.0 1.0 0.00 0.00 0.00 90 1015.3
20260507003031 38 42 0.0 2.0 0.00 0.00 0.00 90 1015.4
20260507002531 38 42 0.0 2.0 0.00 0.00 0.00 90 1015.4
20260507002031 38 42 0.0 2.0 0.00 0.00 0.00 90 1015.4
20260507001536 38 42 0.0 2.0 0.00 0.00 0.00 90 1015.4
20260507001030 38 42 0.0 0.0 0.00 0.00 0.00 90 1015.4
20260507000529 38 42 0.0 0.0 0.00 0.00 0.00 89 1015.4
20260507000028 39 42 0.0 0.0 0.00 0.00 0.00 89 1015.4
20260506235528 39 42 0.0 0.0 0.00 0.00 0.00 89 1015.4
20260506235027 39 42 0.0 0.0 0.00 0.00 0.00 89 1015.4
20260506234533 39 42 0.0 0.0 0.00 0.00 0.00 89 1015.3
20260506234026 39 42 0.0 0.0 0.00 0.00 0.00 89 1015.3
20260506233526 39 42 0.0 0.0 0.00 0.00 0.00 89 1015.3
20260506233026 39 42 0.0 0.0 0.00 0.00 0.00 88 1015.2
20260506232524 39 42 0.0 0.0 0.00 0.00 0.00 88 1015.2
20260506232024 39 42 0.0 0.0 0.00 0.00 0.00 88 1015.2
20260506231524 39 42 0.0 0.0 0.00 0.00 0.00 88 1015.2
20260506231022 39 42 0.0 0.0 0.00 0.00 0.00 87 1015.2
20260506230521 40 42 0.0 0.0 0.00 0.00 0.00 87 1015.1
20260506230021 40 42 0.0 0.0 0.00 0.00 0.00 87 1015.1
20260506225520 40 42 0.0 0.0 0.00 0.00 0.00 86 1015.1
20260506225019 40 42 0.0 0.0 0.00 0.00 0.00 87 1015.1
20260506224526 40 42 0.0 0.0 0.00 0.00 0.00 87 1015.1
20260506224018 40 42 0.0 0.0 0.00 0.00 0.00 86 1015.0
20260506223517 40 42 0.0 0.0 0.00 0.00 0.00 86 1015.1
20260506223016 40 42 0.0 0.0 0.00 0.00 0.00 86 1015.0
20260506222517 41 42 0.0 0.0 0.00 0.00 0.00 86 1015.0
20260506222015 41 42 0.0 0.0 0.00 0.00 0.00 85 1015.0
20260506221515 41 42 0.0 0.0 0.00 0.00 0.00 85 1015.0
20260506221013 41 42 0.0 0.0 0.00 0.00 0.00 84 1015.0
20260506220513 42 42 0.0 0.0 0.00 0.00 0.00 84 1014.9
20260506220013 42 42 0.0 0.0 0.00 0.00 0.00 84 1014.9
20260506215512 42 42 0.0 0.0 0.00 0.00 0.00 83 1014.9
20260506215111 42 42 0.0 0.0 0.00 0.00 0.00 83 1014.9
20260506214510 42 42 0.0 0.0 0.00 0.00 0.00 83 1014.8
20260506214010 42 42 0.0 0.0 0.00 0.00 0.00 83 1014.8
20260506213509 42 42 0.0 0.0 0.00 0.00 0.00 83 1014.9
20260506213016 43 42 0.0 0.0 0.00 0.00 0.00 82 1014.9
20260506212513 43 42 0.0 0.0 0.00 0.00 0.00 82 1014.8
20260506212007 43 42 0.0 0.0 0.00 0.00 0.00 82 1014.8
20260506211506 43 42 0.0 0.0 0.00 0.00 0.00 82 1014.8
20260506211008 43 42 0.0 0.0 0.00 0.00 0.00 82 1014.8
20260506210505 44 42 0.0 0.0 0.00 0.00 0.00 81 1014.7
20260506210004 44 42 0.0 0.0 0.00 0.00 0.00 80 1014.6
20260506205503 45 42 0.0 0.0 0.00 0.00 0.00 79 1014.6
20260506205001 45 42 0.0 0.0 0.00 0.00 0.00 79 1014.6
20260506204600 45 42 0.0 0.0 0.00 0.00 0.00 78 1014.5
20260506204059 45 42 0.0 0.0 0.00 0.00 0.00 77 1014.4
20260506203559 46 42 0.0 0.0 0.00 0.00 0.00 75 1014.4